START_TIME,STEP,MOV.,A39,t_acc.,A33,t_acc.,P32,t_acc.,P31,t_acc.
1981-08-26 09:00:23.590 ,3,0,0.,0.8,0.,0.8,0.,0.8,0.,0.8
1981-08-26 09:00:24.390 ,3,0,0.,0.8,0.,0.8,0.,0.8,0.,0.8
1981-08-26 09:00:25.190 ,3,0,0.,0.8,0.,0.8,0.,0.8,0.,0.8
1981-08-26 09:00:25.990 ,3,0,0.,0.8,0.,0.8,0.,0.8,0.,0.8
1981-08-26 09:00:26.790 ,3,0,0.,0.8,0.,0.8,0.,0.8,0.,0.8
1981-08-26 09:00:27.590 ,3,0,0.,0.8,0.,0.8,0.,0.8,0.,0.8
1981-08-26 09:00:28.390 ,3,0,0.,0.8,0.,0.8,0.,0.8,0.,0.8
1981-08-26 09:00:29.190 ,3,0,0.,0.8,0.,0.8,0.,0.8,0.,0.8
1981-08-26 09:00:29.990 ,3,0,0.,0.8,0.,0.8,0.,0.8,0.,0.8
1981-08-26 09:00:30.790 ,3,0,0.,0.8,0.,0.8,0.,0.8,0.,0.8
1981-08-26 09:00:31.590 ,3,0,0.,0.8,0.,0.8,0.,0.8,0.,0.8
1981-08-26 09:00:32.390 ,3,0,0.,0.8,0.,0.8,0.,0.8,0.,0.8
1981-08-26 09:00:33.190 ,3,0,0.,0.8,0.,0.8,0.,0.8,0.,0.8
1981-08-26 09:00:33.990 ,3,0,0.,0.8,0.,0.8,0.,0.8,0.,0.8
1981-08-26 09:00:34.790 ,3,0,0.,0.8,0.,0.8,0.,0.8,0.,0.8
1981-08-26 09:00:35.590 ,3,0,0.,0.8,0.,0.8,0.,0.8,0.,0.8
1981-08-26 09:00:36.390 ,3,0,0.,0.8,0.,0.8,0.,0.8,0.,0.8
1981-08-26 09:00:37.190 ,3,0,0.,0.8,0.,0.8,0.,0.8,0.,0.8
1981-08-26 09:00:37.990 ,3,0,0.,0.8,0.,0.8,0.,0.8,0.,0.8
1981-08-26 09:00:38.790 ,3,0,0.,0.8,0.,0.8,0.,0.8,0.,0.8
1981-08-26 09:00:39.590 ,3,0,0.,0.8,0.,0.8,0.,0.8,0.,0.8
1981-08-26 09:00:40.390 ,3,0,0.,0.8,0.,0.8,0.,0.8,0.,0.8
1981-08-26 09:00:41.190 ,3,0,0.,0.8,0.,0.8,0.,0.8,0.,0.8
1981-08-26 09:00:41.990 ,3,0,0.,0.8,0.,0.8,0.,0.8,0.,0.8
1981-08-26 09:00:42.790 ,3,0,0.,0.8,0.,0.8,0.,0.8,0.,0.8
1981-08-26 09:00:43.590 ,3,0,0.,0.8,0.,0.8,0.,0.8,0.,0.8
1981-08-26 09:00:44.390 ,3,0,0.,0.8,0.,0.8,0.,0.8,0.,0.8
1981-08-26 09:00:45.190 ,3,0,0.,0.8,0.,0.8,0.,0.8,0.,0.8
1981-08-26 09:00:45.990 ,3,0,0.,0.8,0.,0.8,0.,0.8,0.,0.8
1981-08-26 09:00:46.790 ,3,0,0.,0.8,0.,0.8,0.,0.8,0.,0.8
1981-08-26 09:00:47.590 ,4,0,0.,0.8,0.,0.8,0.,0.8,0.,0.8
1981-08-26 09:00:48.390 ,4,0,0.,0.8,0.,0.8,0.,0.8,0.,0.8
1981-08-26 09:00:49.190 ,4,0,0.,0.8,0.,0.8,0.,0.8,0.,0.8
1981-08-26 09:00:49.990 ,4,0,0.,0.8,0.,0.8,0.,0.8,0.,0.8
1981-08-26 09:00:50.790 ,4,0,0.,0.8,0.,0.8,0.,0.8,0.,0.8
1981-08-26 09:00:51.590 ,4,0,0.,0.8,0.,0.8,0.,0.8,0.,0.8
1981-08-26 09:00:52.390 ,4,0,0.,0.8,0.,0.8,0.,0.8,0.,0.8
1981-08-26 09:00:53.190 ,4,0,0.,0.8,0.,0.8,0.,0.8,0.,0.8
1981-08-26 09:00:53.990 ,4,0,0.,0.8,0.,0.8,0.,0.8,0.,0.8
1981-08-26 09:00:54.790 ,4,0,0.,0.8,0.,0.8,0.,0.8,0.,0.8
1981-08-26 09:00:55.590 ,4,0,0.,0.8,0.,0.8,0.,0.8,0.,0.8
1981-08-26 09:00:56.390 ,4,0,0.,0.8,0.,0.8,0.,0.8,0.,0.8
1981-08-26 09:00:57.190 ,4,0,0.,0.8,0.,0.8,0.,0.8,0.,0.8
1981-08-26 09:00:57.990 ,4,0,0.,0.8,0.,0.8,0.,0.8,0.,0.8
1981-08-26 09:00:58.790 ,4,0,0.,0.8,0.,0.8,0.,0.8,0.,0.8
1981-08-26 09:00:59.590 ,4,0,0.,0.8,0.,0.8,0.,0.8,0.,0.8
1981-08-26 09:01:00.390 ,4,0,0.,0.8,0.,0.8,0.,0.8,0.,0.8
1981-08-26 09:01:01.190 ,4,0,0.,0.8,0.,0.8,0.,0.8,0.,0.8
1981-08-26 09:01:01.990 ,4,0,0.,0.8,0.,0.8,0.,0.8,0.,0.8
1981-08-26 09:01:02.790 ,4,0,0.,0.8,0.,0.8,0.,0.8,0.,0.8
1981-08-26 09:01:03.590 ,4,0,0.,0.8,0.,0.8,0.,0.8,0.,0.8
1981-08-26 09:01:04.390 ,4,0,0.,0.8,0.,0.8,0.,0.8,0.,0.8
1981-08-26 09:01:05.190 ,4,0,0.,0.8,0.,0.8,0.,0.8,0.,0.8
1981-08-26 09:01:05.990 ,4,0,0.,0.8,0.,0.8,0.,0.8,0.,0.8
1981-08-26 09:01:06.790 ,4,0,0.,0.8,0.,0.8,0.,0.8,0.,0.8
1981-08-26 09:01:07.590 ,4,0,0.,0.8,0.,0.8,0.,0.8,0.,0.8
1981-08-26 09:01:08.390 ,4,0,0.,0.8,0.,0.8,0.,0.8,0.,0.8
1981-08-26 09:01:09.190 ,4,0,0.,0.8,0.,0.8,0.,0.8,0.,0.8
1981-08-26 09:01:09.990 ,4,0,0.,0.8,0.,0.8,0.,0.8,0.,0.8
1981-08-26 09:01:10.790 ,4,0,0.,0.8,0.,0.8,0.,0.8,0.,0.8
1981-08-26 09:01:11.590 ,5,0,0.,0.8,0.,0.8,0.,0.8,0.,0.8
1981-08-26 09:01:12.390 ,5,0,0.,0.8,0.,0.8,0.,0.8,0.,0.8
1981-08-26 09:01:13.190 ,5,0,0.,0.8,0.,0.8,0.,0.8,0.,0.8
1981-08-26 09:01:13.990 ,5,0,0.,0.8,0.,0.8,0.,0.8,0.,0.8
1981-08-26 09:01:14.790 ,5,0,0.,0.8,0.,0.8,0.,0.8,0.,0.8
1981-08-26 09:01:15.590 ,5,0,0.,0.8,0.,0.8,0.,0.8,0.,0.8
1981-08-26 09:01:16.390 ,5,0,0.,0.8,0.,0.8,0.,0.8,0.,0.8
1981-08-26 09:01:17.190 ,5,0,0.,0.8,0.,0.8,0.,0.8,0.,0.8
1981-08-26 09:01:17.990 ,5,0,0.,0.8,0.,0.8,0.,0.8,0.,0.8
1981-08-26 09:01:18.790 ,5,0,0.,0.8,0.,0.8,0.,0.8,0.,0.8
1981-08-26 09:01:19.590 ,5,0,0.,0.8,0.,0.8,0.,0.8,0.,0.8
1981-08-26 09:01:20.390 ,5,0,0.,0.8,0.,0.8,0.,0.8,0.,0.8
1981-08-26 09:01:21.190 ,5,0,0.,0.8,0.,0.8,0.,0.8,0.,0.8
1981-08-26 09:01:21.990 ,5,0,0.,0.8,0.,0.8,0.,0.8,0.,0.8
1981-08-26 09:01:22.790 ,5,0,0.,0.8,0.,0.8,0.,0.8,0.,0.8
1981-08-26 09:01:23.590 ,5,0,0.,0.8,0.,0.8,0.,0.8,0.,0.8
1981-08-26 09:01:24.390 ,5,0,0.,0.8,0.,0.8,0.,0.8,0.,0.8
1981-08-26 09:01:25.190 ,5,0,0.,0.8,0.,0.8,0.,0.8,0.,0.8
1981-08-26 09:01:25.990 ,5,0,0.,0.8,0.,0.8,0.,0.8,0.,0.8
1981-08-26 09:01:26.790 ,5,0,0.,0.8,0.,0.8,0.,0.8,0.,0.8
1981-08-26 09:01:27.590 ,5,0,0.,0.8,0.,0.8,0.,0.8,0.,0.8
1981-08-26 09:01:28.390 ,5,0,0.,0.8,0.,0.8,0.,0.8,0.,0.8
1981-08-26 09:01:29.190 ,5,0,0.,0.8,0.,0.8,0.,0.8,0.,0.8
1981-08-26 09:01:29.990 ,5,0,0.,0.8,0.,0.8,0.,0.8,0.,0.8
1981-08-26 09:01:30.790 ,5,0,0.,0.8,0.,0.8,0.,0.8,0.,0.8
1981-08-26 09:01:31.590 ,5,0,0.,0.8,0.,0.8,0.,0.8,0.,0.8
1981-08-26 09:01:32.390 ,5,0,0.,0.8,0.,0.8,0.,0.8,0.,0.8
1981-08-26 09:01:33.190 ,5,0,0.,0.8,0.,0.8,0.,0.8,0.,0.8
1981-08-26 09:01:33.990 ,5,0,0.,0.8,0.,0.8,0.,0.8,0.,0.8
1981-08-26 09:01:34.790 ,5,0,0.,0.8,0.,0.8,0.,0.8,0.,0.8
1981-08-26 09:01:35.590 ,6,0,0.,0.8,0.,0.8,0.,0.8,0.,0.8
1981-08-26 09:01:36.390 ,6,0,0.,0.8,0.,0.8,0.,0.8,0.,0.8
1981-08-26 09:01:37.190 ,6,0,0.,0.8,0.,0.8,0.,0.8,0.,0.8
1981-08-26 09:01:37.990 ,6,0,0.,0.8,0.,0.8,0.,0.8,0.,0.8
1981-08-26 09:01:38.790 ,6,0,0.,0.8,0.,0.8,0.,0.8,0.,0.8
1981-08-26 09:01:39.590 ,6,0,0.,0.8,0.,0.8,0.,0.8,0.,0.8
1981-08-26 09:01:40.390 ,6,0,0.,0.8,0.,0.8,0.,0.8,0.,0.8
1981-08-26 09:01:41.190 ,6,0,0.,0.8,0.,0.8,0.,0.8,0.,0.8
1981-08-26 09:01:41.990 ,6,0,0.,0.8,0.,0.8,0.,0.8,0.,0.8
1981-08-26 09:01:42.790 ,6,0,0.,0.8,0.,0.8,0.,0.8,0.,0.8
1981-08-26 09:01:43.590 ,6,0,0.,0.8,0.,0.8,0.,0.8,0.,0.8
1981-08-26 09:01:44.390 ,6,0,0.,0.8,0.,0.8,0.,0.8,0.,0.8
1981-08-26 09:01:45.190 ,6,0,0.,0.8,0.,0.8,0.,0.8,0.,0.8
1981-08-26 09:01:45.990 ,6,0,0.,0.8,0.,0.8,0.,0.8,0.,0.8
1981-08-26 09:01:46.790 ,6,0,0.,0.8,0.,0.8,0.,0.8,0.,0.8
1981-08-26 09:01:47.590 ,6,0,0.,0.8,0.,0.8,0.,0.8,0.,0.8
1981-08-26 09:01:48.390 ,6,0,0.,0.8,0.,0.8,0.,0.8,0.,0.8
1981-08-26 09:01:49.190 ,6,0,0.,0.8,0.,0.8,0.,0.8,0.,0.8
1981-08-26 09:01:49.990 ,6,0,0.,0.8,0.,0.8,0.,0.8,0.,0.8
1981-08-26 09:01:50.790 ,6,0,0.,0.8,0.,0.8,0.,0.8,0.,0.8
1981-08-26 09:01:51.590 ,6,0,0.,0.8,0.,0.8,0.,0.8,0.,0.8
1981-08-26 09:01:52.390 ,6,0,0.,0.8,0.,0.8,0.,0.8,0.,0.8
1981-08-26 09:01:53.190 ,6,0,0.,0.8,0.,0.8,0.,0.8,0.,0.8
1981-08-26 09:01:53.990 ,6,0,0.,0.8,0.,0.8,0.,0.8,0.,0.8
1981-08-26 09:01:54.790 ,6,0,0.,0.8,0.,0.8,0.,0.8,0.,0.8
1981-08-26 09:01:55.590 ,6,0,0.,0.8,0.,0.8,0.,0.8,0.,0.8
1981-08-26 09:01:56.390 ,6,0,0.,0.8,0.,0.8,0.,0.8,0.,0.8
1981-08-26 09:01:57.190 ,6,0,0.,0.8,0.,0.8,0.,0.8,0.,0.8
1981-08-26 09:01:57.990 ,6,0,0.,0.8,0.,0.8,0.,0.8,0.,0.8
1981-08-26 09:01:58.790 ,6,0,0.,0.8,0.,0.8,0.,0.8,0.,0.8
1981-08-26 09:01:59.590 ,7,0,0.,0.8,0.,0.8,0.,0.8,0.,0.8
1981-08-26 09:02:00.390 ,7,0,0.,0.8,0.,0.8,0.,0.8,0.,0.8
1981-08-26 09:02:01.190 ,7,0,0.,0.8,0.,0.8,0.,0.8,0.,0.8
1981-08-26 09:02:01.990 ,7,0,0.,0.8,0.,0.8,0.,0.8,0.,0.8
1981-08-26 09:02:02.790 ,7,0,0.,0.8,0.,0.8,0.,0.8,0.,0.8
1981-08-26 09:02:03.590 ,7,0,0.,0.8,0.,0.8,0.,0.8,0.,0.8
1981-08-26 09:02:04.390 ,7,0,0.,0.8,0.,0.8,0.,0.8,0.,0.8
1981-08-26 09:02:05.190 ,7,0,0.,0.8,0.,0.8,0.,0.8,0.,0.8
1981-08-26 09:02:05.990 ,7,0,0.,0.8,0.,0.8,0.,0.8,0.,0.8
1981-08-26 09:02:06.790 ,7,0,0.,0.8,0.,0.8,0.,0.8,0.,0.8
1981-08-26 09:02:07.590 ,7,0,0.,0.8,0.,0.8,0.,0.8,0.,0.8
1981-08-26 09:02:08.390 ,7,0,0.,0.8,0.,0.8,0.,0.8,0.,0.8
1981-08-26 09:02:09.190 ,7,0,0.,0.8,0.,0.8,0.,0.8,0.,0.8
1981-08-26 09:02:09.990 ,7,0,0.,0.8,0.,0.8,0.,0.8,0.,0.8
1981-08-26 09:02:10.790 ,7,0,0.,0.8,0.,0.8,0.,0.8,0.,0.8
1981-08-26 09:02:11.590 ,7,0,0.,0.8,0.,0.8,0.,0.8,0.,0.8
1981-08-26 09:02:12.390 ,7,0,0.,0.8,0.,0.8,0.,0.8,0.,0.8
1981-08-26 09:02:13.190 ,7,0,0.,0.8,0.,0.8,0.,0.8,0.,0.8
1981-08-26 09:02:13.990 ,7,0,0.,0.8,0.,0.8,0.,0.8,0.,0.8
1981-08-26 09:02:14.790 ,7,0,0.,0.8,0.,0.8,0.,0.8,0.,0.8
1981-08-26 09:02:15.590 ,7,0,0.,0.8,0.,0.8,0.,0.8,0.,0.8
1981-08-26 09:02:16.390 ,7,0,0.,0.8,0.,0.8,0.,0.8,0.,0.8
1981-08-26 09:02:17.190 ,7,0,0.,0.8,0.,0.8,0.,0.8,0.,0.8
1981-08-26 09:02:17.990 ,7,0,0.,0.8,0.,0.8,0.,0.8,0.,0.8
1981-08-26 09:02:18.790 ,7,0,0.,0.8,0.,0.8,0.,0.8,0.,0.8
1981-08-26 09:02:19.590 ,7,0,0.,0.8,0.,0.8,0.,0.8,0.,0.8
1981-08-26 09:02:20.390 ,7,0,0.,0.8,0.,0.8,0.,0.8,0.,0.8
1981-08-26 09:02:21.190 ,7,0,0.,0.8,0.,0.8,0.,0.8,0.,0.8
1981-08-26 09:02:21.990 ,7,0,0.,0.8,0.,0.8,0.,0.8,0.,0.8
1981-08-26 09:02:22.790 ,7,0,0.,0.8,0.,0.8,0.,0.8,0.,0.8
1981-08-26 09:02:23.590 ,7,0,0.,0.8,0.,0.8,0.,0.8,0.,0.8
1981-08-26 09:02:24.390 ,7,0,0.,0.8,0.,0.8,0.,0.8,0.,0.8
1981-08-26 09:02:25.190 ,7,0,0.,0.8,0.,0.8,0.,0.8,0.,0.8
1981-08-26 09:02:25.990 ,7,0,0.,0.8,0.,0.8,0.,0.8,0.,0.8
1981-08-26 09:02:26.790 ,7,0,0.,0.8,0.,0.8,0.,0.8,0.,0.8
1981-08-26 09:02:27.590 ,7,0,0.,0.8,0.,0.8,0.,0.8,0.,0.8
1981-08-26 09:02:28.390 ,7,0,0.,0.8,0.,0.8,0.,0.8,0.,0.8
1981-08-26 09:02:29.190 ,7,0,0.,0.8,0.,0.8,0.,0.8,0.,0.8
1981-08-26 09:02:29.990 ,7,0,0.,0.8,0.,0.8,0.,0.8,0.,0.8
1981-08-26 09:02:30.790 ,7,0,0.,0.8,0.,0.8,0.,0.8,0.,0.8
1981-08-26 09:02:31.590 ,7,0,0.,0.8,0.,0.8,0.,0.8,0.,0.8
1981-08-26 09:02:32.390 ,7,0,0.,0.8,0.,0.8,0.,0.8,0.,0.8
1981-08-26 09:02:33.190 ,7,0,0.,0.8,0.,0.8,0.,0.8,0.,0.8
1981-08-26 09:02:33.990 ,7,0,0.,0.8,0.,0.8,0.,0.8,0.,0.8
1981-08-26 09:02:34.790 ,7,0,0.,0.8,0.,0.8,0.,0.8,0.,0.8
1981-08-26 09:02:35.590 ,7,0,0.,0.8,0.,0.8,0.,0.8,0.,0.8
1981-08-26 09:02:36.390 ,7,0,0.,0.8,0.,0.8,0.,0.8,0.,0.8
1981-08-26 09:02:37.190 ,7,0,0.,0.8,0.,0.8,0.,0.8,0.,0.8
1981-08-26 09:02:37.990 ,7,0,0.,0.8,0.,0.8,0.,0.8,0.,0.8
1981-08-26 09:02:38.790 ,7,0,0.,0.8,0.,0.8,0.,0.8,0.,0.8
1981-08-26 09:02:39.590 ,7,0,0.,0.8,0.,0.8,0.,0.8,0.,0.8
1981-08-26 09:02:40.390 ,7,0,0.,0.8,0.,0.8,0.,0.8,0.,0.8
1981-08-26 09:02:41.190 ,7,0,0.,0.8,0.,0.8,0.,0.8,0.,0.8
1981-08-26 09:02:41.990 ,7,0,0.,0.8,0.,0.8,0.,0.8,0.,0.8
1981-08-26 09:02:42.790 ,7,0,0.,0.8,0.,0.8,0.,0.8,0.,0.8
1981-08-26 09:02:43.590 ,7,0,0.,0.8,0.,0.8,0.,0.8,0.,0.8
1981-08-26 09:02:44.390 ,7,0,0.,0.8,0.,0.8,0.,0.8,0.,0.8
1981-08-26 09:02:45.190 ,7,0,0.,0.8,0.,0.8,0.,0.8,0.,0.8
1981-08-26 09:02:45.990 ,7,0,0.,0.8,0.,0.8,0.,0.8,0.,0.8
1981-08-26 09:02:46.790 ,7,0,0.,0.8,0.,0.8,0.,0.8,0.,0.8
1981-08-26 09:02:47.590 ,6,0,0.,0.8,0.,0.8,0.,0.8,0.,0.8
1981-08-26 09:02:48.390 ,6,0,0.,0.8,0.,0.8,0.,0.8,0.,0.8
1981-08-26 09:02:49.190 ,6,0,0.,0.8,0.,0.8,0.,0.8,0.,0.8
1981-08-26 09:02:49.990 ,6,0,0.,0.8,0.,0.8,0.,0.8,0.,0.8
1981-08-26 09:02:50.790 ,6,0,0.,0.8,0.,0.8,0.,0.8,0.,0.8
1981-08-26 09:02:51.590 ,6,0,0.,0.8,0.,0.8,0.,0.8,0.,0.8
1981-08-26 09:02:52.390 ,6,0,0.,0.8,0.,0.8,0.,0.8,0.,0.8
1981-08-26 09:02:53.190 ,6,0,0.,0.8,0.,0.8,0.,0.8,0.,0.8
1981-08-26 09:02:53.990 ,6,0,0.,0.8,0.,0.8,0.,0.8,0.,0.8
1981-08-26 09:02:54.790 ,6,0,0.,0.8,0.,0.8,0.,0.8,0.,0.8
1981-08-26 09:02:55.590 ,6,0,0.,0.8,0.,0.8,0.,0.8,0.,0.8
1981-08-26 09:02:56.390 ,6,0,0.,0.8,0.,0.8,0.,0.8,0.,0.8
1981-08-26 09:02:57.190 ,6,0,0.,0.8,0.,0.8,0.,0.8,0.,0.8
1981-08-26 09:02:57.990 ,6,0,0.,0.8,0.,0.8,0.,0.8,0.,0.8
1981-08-26 09:02:58.790 ,6,0,0.,0.8,0.,0.8,0.,0.8,0.,0.8
1981-08-26 09:02:59.590 ,6,0,0.,0.8,0.,0.8,0.,0.8,0.,0.8
1981-08-26 09:03:00.390 ,6,0,0.,0.8,0.,0.8,0.,0.8,0.,0.8
1981-08-26 09:03:01.190 ,6,0,0.,0.8,0.,0.8,0.,0.8,0.,0.8
1981-08-26 09:03:01.990 ,6,0,0.,0.8,0.,0.8,0.,0.8,0.,0.8
1981-08-26 09:03:02.790 ,6,0,0.,0.8,0.,0.8,0.,0.8,0.,0.8
1981-08-26 09:03:03.590 ,6,0,0.,0.8,0.,0.8,0.,0.8,0.,0.8
1981-08-26 09:03:04.390 ,6,0,0.,0.8,0.,0.8,0.,0.8,0.,0.8
1981-08-26 09:03:05.190 ,6,0,0.,0.8,0.,0.8,0.,0.8,0.,0.8
1981-08-26 09:03:05.990 ,6,0,0.,0.8,0.,0.8,0.,0.8,0.,0.8
1981-08-26 09:03:06.790 ,6,0,0.,0.8,0.,0.8,0.,0.8,0.,0.8
1981-08-26 09:03:07.590 ,6,0,0.,0.8,0.,0.8,0.,0.8,0.,0.8
1981-08-26 09:03:08.390 ,6,0,0.,0.8,0.,0.8,0.,0.8,0.,0.8
1981-08-26 09:03:09.190 ,6,0,0.,0.8,0.,0.8,0.,0.8,0.,0.8
1981-08-26 09:03:09.990 ,6,0,0.,0.8,0.,0.8,0.,0.8,0.,0.8
1981-08-26 09:03:10.790 ,6,0,0.,0.8,0.,0.8,0.,0.8,0.,0.8
1981-08-26 09:03:11.590 ,5,0,0.,0.8,0.,0.8,0.,0.8,0.,0.8
1981-08-26 09:03:12.390 ,5,0,0.,0.8,0.,0.8,0.,0.8,0.,0.8
1981-08-26 09:03:13.190 ,5,0,0.,0.8,0.,0.8,0.,0.8,0.,0.8
1981-08-26 09:03:13.990 ,5,0,0.,0.8,0.,0.8,0.,0.8,0.,0.8
1981-08-26 09:03:14.790 ,5,0,0.,0.8,0.,0.8,0.,0.8,0.,0.8
1981-08-26 09:03:15.590 ,5,0,0.,0.8,0.,0.8,0.,0.8,0.,0.8
1981-08-26 09:03:16.390 ,5,0,0.,0.8,0.,0.8,0.,0.8,0.,0.8
1981-08-26 09:03:17.190 ,5,0,0.,0.8,0.,0.8,0.,0.8,0.,0.8
1981-08-26 09:03:17.990 ,5,0,0.,0.8,0.,0.8,0.,0.8,0.,0.8
1981-08-26 09:03:18.790 ,5,0,0.,0.8,0.,0.8,0.,0.8,0.,0.8
1981-08-26 09:03:19.590 ,5,0,0.,0.8,0.,0.8,0.,0.8,0.,0.8
1981-08-26 09:03:20.390 ,5,0,0.,0.8,0.,0.8,0.,0.8,0.,0.8
1981-08-26 09:03:21.190 ,5,0,0.,0.8,0.,0.8,0.,0.8,0.,0.8
1981-08-26 09:03:21.990 ,5,0,0.,0.8,0.,0.8,0.,0.8,0.,0.8
1981-08-26 09:03:22.790 ,5,0,0.,0.8,0.,0.8,0.,0.8,0.,0.8
1981-08-26 09:03:23.590 ,5,0,0.,0.8,0.,0.8,0.,0.8,0.,0.8
1981-08-26 09:03:24.390 ,5,0,0.,0.8,0.,0.8,0.,0.8,0.,0.8
1981-08-26 09:03:25.190 ,5,0,0.,0.8,0.,0.8,0.,0.8,0.,0.8
1981-08-26 09:03:25.990 ,5,0,0.,0.8,0.,0.8,0.,0.8,0.,0.8
1981-08-26 09:03:26.790 ,5,0,0.,0.8,0.,0.8,0.,0.8,0.,0.8
1981-08-26 09:03:27.590 ,5,0,0.,0.8,0.,0.8,0.,0.8,0.,0.8
1981-08-26 09:03:28.390 ,5,0,0.,0.8,0.,0.8,0.,0.8,0.,0.8
1981-08-26 09:03:29.190 ,5,0,0.,0.8,0.,0.8,0.,0.8,0.,0.8
1981-08-26 09:03:29.990 ,5,0,0.,0.8,0.,0.8,0.,0.8,0.,0.8
1981-08-26 09:03:30.790 ,5,0,0.,0.8,0.,0.8,0.,0.8,0.,0.8
1981-08-26 09:03:31.590 ,5,0,0.,0.8,0.,0.8,0.,0.8,0.,0.8
1981-08-26 09:03:32.390 ,5,0,0.,0.8,0.,0.8,0.,0.8,0.,0.8
1981-08-26 09:03:33.190 ,5,0,0.,0.8,0.,0.8,0.,0.8,0.,0.8
1981-08-26 09:03:33.990 ,5,0,0.,0.8,0.,0.8,0.,0.8,0.,0.8
1981-08-26 09:03:34.790 ,5,0,0.,0.8,0.,0.8,0.,0.8,0.,0.8
1981-08-26 09:03:35.590 ,4,0,0.,0.8,0.,0.8,0.,0.8,0.,0.8
1981-08-26 09:03:36.390 ,4,0,0.,0.8,0.,0.8,0.,0.8,0.,0.8
1981-08-26 09:03:37.190 ,4,0,0.,0.8,0.,0.8,0.,0.8,0.,0.8
1981-08-26 09:03:37.990 ,4,0,0.,0.8,0.,0.8,0.,0.8,0.,0.8
1981-08-26 09:03:38.790 ,4,0,0.,0.8,0.,0.8,0.,0.8,0.,0.8
1981-08-26 09:03:39.590 ,4,0,0.,0.8,0.,0.8,0.,0.8,0.,0.8
1981-08-26 09:03:40.390 ,4,0,0.,0.8,0.,0.8,0.,0.8,0.,0.8
1981-08-26 09:03:41.190 ,4,0,0.,0.8,0.,0.8,0.,0.8,0.,0.8
1981-08-26 09:03:41.990 ,4,0,0.,0.8,0.,0.8,0.,0.8,0.,0.8
1981-08-26 09:03:42.790 ,4,0,0.,0.8,0.,0.8,0.,0.8,0.,0.8
1981-08-26 09:03:43.590 ,4,0,0.,0.8,0.,0.8,0.,0.8,0.,0.8
1981-08-26 09:03:44.390 ,4,0,0.,0.8,0.,0.8,0.,0.8,0.,0.8
1981-08-26 09:03:45.190 ,4,0,0.,0.8,0.,0.8,0.,0.8,0.,0.8
1981-08-26 09:03:45.990 ,4,0,0.,0.8,0.,0.8,0.,0.8,0.,0.8
1981-08-26 09:03:46.790 ,4,0,0.,0.8,0.,0.8,0.,0.8,0.,0.8
1981-08-26 09:03:47.590 ,4,0,0.,0.8,0.,0.8,0.,0.8,0.,0.8
1981-08-26 09:03:48.390 ,4,0,0.,0.8,0.,0.8,0.,0.8,0.,0.8
1981-08-26 09:03:49.190 ,4,0,0.,0.8,0.,0.8,0.,0.8,0.,0.8
1981-08-26 09:03:49.990 ,4,0,0.,0.8,0.,0.8,0.,0.8,0.,0.8
1981-08-26 09:03:50.790 ,4,0,0.,0.8,0.,0.8,0.,0.8,0.,0.8
1981-08-26 09:03:51.590 ,4,0,0.,0.8,0.,0.8,0.,0.8,0.,0.8
1981-08-26 09:03:52.390 ,4,0,0.,0.8,0.,0.8,0.,0.8,0.,0.8
1981-08-26 09:03:53.190 ,4,0,0.,0.8,0.,0.8,0.,0.8,0.,0.8
1981-08-26 09:03:53.990 ,4,0,0.,0.8,0.,0.8,0.,0.8,0.,0.8
1981-08-26 09:03:54.790 ,4,0,0.,0.8,0.,0.8,0.,0.8,0.,0.8
1981-08-26 09:03:55.590 ,4,0,0.,0.8,0.,0.8,0.,0.8,0.,0.8
1981-08-26 09:03:56.390 ,4,0,0.,0.8,0.,0.8,0.,0.8,0.,0.8
1981-08-26 09:03:57.190 ,4,0,0.,0.8,0.,0.8,0.,0.8,0.,0.8
1981-08-26 09:03:57.990 ,4,0,0.,0.8,0.,0.8,0.,0.8,0.,0.8
1981-08-26 09:03:58.790 ,4,0,0.,0.8,0.,0.8,0.,0.8,0.,0.8
1981-08-26 09:03:59.590 ,3,0,0.,0.8,0.,0.8,0.,0.8,0.,0.8
1981-08-26 09:04:00.390 ,3,0,0.,0.8,0.,0.8,0.,0.8,0.,0.8
1981-08-26 09:04:01.190 ,3,0,0.,0.8,0.,0.8,0.,0.8,0.,0.8
1981-08-26 09:04:01.990 ,3,0,0.,0.8,0.,0.8,0.,0.8,0.,0.8
1981-08-26 09:04:02.790 ,3,0,0.,0.8,0.,0.8,0.,0.8,0.,0.8
1981-08-26 09:04:03.590 ,3,0,0.,0.8,0.,0.8,0.,0.8,0.,0.8
1981-08-26 09:04:04.390 ,3,0,0.,0.8,0.,0.8,0.,0.8,0.,0.8
1981-08-26 09:04:05.190 ,3,0,0.,0.8,0.,0.8,0.,0.8,0.,0.8
1981-08-26 09:04:05.990 ,3,0,0.,0.8,0.,0.8,0.,0.8,0.,0.8
1981-08-26 09:04:06.790 ,3,0,0.,0.8,0.,0.8,0.,0.8,0.,0.8
1981-08-26 09:04:07.590 ,3,0,0.,0.8,0.,0.8,0.,0.8,0.,0.8
1981-08-26 09:04:08.390 ,3,0,0.,0.8,0.,0.8,0.,0.8,0.,0.8
1981-08-26 09:04:09.190 ,3,0,0.,0.8,0.,0.8,0.,0.8,0.,0.8
1981-08-26 09:04:09.990 ,3,0,0.,0.8,0.,0.8,0.,0.8,0.,0.8
1981-08-26 09:04:10.790 ,3,0,0.,0.8,0.,0.8,0.,0.8,0.,0.8
1981-08-26 09:04:11.590 ,3,0,0.,0.8,0.,0.8,0.,0.8,0.,0.8
1981-08-26 09:04:12.390 ,3,0,0.,0.8,0.,0.8,0.,0.8,0.,0.8
1981-08-26 09:04:13.190 ,3,0,0.,0.8,0.,0.8,0.,0.8,0.,0.8
1981-08-26 09:04:13.990 ,3,0,0.,0.8,0.,0.8,0.,0.8,0.,0.8
1981-08-26 09:04:14.790 ,3,0,0.,0.8,0.,0.8,0.,0.8,0.,0.8
1981-08-26 09:04:15.590 ,3,0,0.,0.8,0.,0.8,0.,0.8,0.,0.8
1981-08-26 09:04:16.390 ,3,0,0.,0.8,0.,0.8,0.,0.8,0.,0.8
1981-08-26 09:04:17.190 ,3,0,0.,0.8,0.,0.8,0.,0.8,0.,0.8
1981-08-26 09:04:17.990 ,3,0,0.,0.8,0.,0.8,0.,0.8,0.,0.8
1981-08-26 09:04:18.790 ,3,0,0.,0.8,0.,0.8,0.,0.8,0.,0.8
1981-08-26 09:04:19.590 ,3,0,0.,0.8,0.,0.8,0.,0.8,0.,0.8
1981-08-26 09:04:20.390 ,3,0,0.,0.8,0.,0.8,0.,0.8,0.,0.8
1981-08-26 09:04:21.190 ,3,0,0.,0.8,0.,0.8,0.,0.8,0.,0.8
1981-08-26 09:04:21.990 ,3,0,0.,0.8,0.,0.8,0.,0.8,0.,0.8
1981-08-26 09:04:22.790 ,3,0,0.,0.8,0.,0.8,0.,0.8,0.,0.8
1981-08-26 09:04:23.590 ,2,0,0.,0.8,0.,0.8,0.,0.8,0.,0.8
1981-08-26 09:04:24.390 ,2,0,0.,0.8,0.,0.8,0.,0.8,0.,0.8
1981-08-26 09:04:25.190 ,2,0,0.,0.8,0.,0.8,0.,0.8,0.,0.8
1981-08-26 09:04:25.990 ,2,0,0.,0.8,0.,0.8,0.,0.8,0.,0.8
1981-08-26 09:04:26.790 ,2,0,0.,0.8,0.,0.8,0.,0.8,0.,0.8
1981-08-26 09:04:27.590 ,2,0,0.,0.8,0.,0.8,0.,0.8,0.,0.8
1981-08-26 09:04:28.390 ,2,0,0.,0.8,0.,0.8,0.,0.8,0.,0.8
1981-08-26 09:04:29.190 ,2,0,0.,0.8,0.,0.8,0.,0.8,0.,0.8
1981-08-26 09:04:29.990 ,2,0,0.,0.8,0.,0.8,0.,0.8,0.,0.8
1981-08-26 09:04:30.790 ,2,0,0.,0.8,0.,0.8,0.,0.8,0.,0.8
1981-08-26 09:04:31.590 ,2,0,0.,0.8,0.,0.8,0.,0.8,0.,0.8
1981-08-26 09:04:32.390 ,2,0,0.,0.8,0.,0.8,0.,0.8,0.,0.8
1981-08-26 09:04:33.190 ,2,0,0.,0.8,0.,0.8,0.,0.8,0.,0.8
1981-08-26 09:04:33.990 ,2,0,0.,0.8,0.,0.8,0.,0.8,0.,0.8
1981-08-26 09:04:34.790 ,2,0,0.,0.8,0.,0.8,0.,0.8,0.,0.8
1981-08-26 09:04:35.590 ,2,0,0.,0.8,0.,0.8,0.,0.8,0.,0.8
1981-08-26 09:04:36.390 ,2,0,0.,0.8,0.,0.8,0.,0.8,0.,0.8
1981-08-26 09:04:37.190 ,2,0,0.,0.8,0.,0.8,0.,0.8,0.,0.8
1981-08-26 09:04:37.990 ,2,0,0.,0.8,0.,0.8,0.,0.8,0.,0.8
1981-08-26 09:04:38.790 ,2,0,0.,0.8,0.,0.8,0.,0.8,0.,0.8
1981-08-26 09:04:39.590 ,2,0,0.,0.8,0.,0.8,0.,0.8,0.,0.8
1981-08-26 09:04:40.390 ,2,0,0.,0.8,0.,0.8,0.,0.8,0.,0.8
1981-08-26 09:04:41.190 ,2,0,0.,0.8,0.,0.8,0.,0.8,0.,0.8
1981-08-26 09:04:41.990 ,2,0,0.,0.8,0.,0.8,0.,0.8,0.,0.8
1981-08-26 09:04:42.790 ,2,0,0.,0.8,0.,0.8,0.,0.8,0.,0.8
1981-08-26 09:04:43.590 ,2,0,0.,0.8,0.,0.8,0.,0.8,0.,0.8
1981-08-26 09:04:44.390 ,2,0,0.,0.8,0.,0.8,0.,0.8,0.,0.8
1981-08-26 09:04:45.190 ,2,0,0.,0.8,0.,0.8,0.,0.8,0.,0.8
1981-08-26 09:04:45.990 ,2,0,0.,0.8,0.,0.8,0.,0.8,0.,0.8
1981-08-26 09:04:46.790 ,2,0,0.,0.8,0.,0.8,0.,0.8,0.,0.8
1981-08-26 09:04:47.590 ,1,0,0.,0.8,0.,0.8,0.,0.8,0.,0.8
1981-08-26 09:04:48.390 ,1,0,0.,0.8,0.,0.8,0.,0.8,0.,0.8
1981-08-26 09:04:49.190 ,1,0,0.,0.8,0.,0.8,0.,0.8,0.,0.8
1981-08-26 09:04:49.990 ,1,0,0.,0.8,0.,0.8,0.,0.8,0.,0.8
1981-08-26 09:04:50.790 ,1,0,0.,0.8,0.,0.8,0.,0.8,0.,0.8
1981-08-26 09:04:51.590 ,1,0,0.,0.8,0.,0.8,0.,0.8,0.,0.8
1981-08-26 09:04:52.390 ,1,0,0.,0.8,0.,0.8,0.,0.8,0.,0.8
1981-08-26 09:04:53.190 ,1,0,0.,0.8,0.,0.8,0.,0.8,0.,0.8
1981-08-26 09:04:53.990 ,1,0,0.,0.8,0.,0.8,0.,0.8,0.,0.8
1981-08-26 09:04:54.790 ,1,0,0.,0.8,0.,0.8,0.,0.8,0.,0.8
1981-08-26 09:04:55.590 ,1,0,0.,0.8,0.,0.8,0.,0.8,0.,0.8
1981-08-26 09:04:56.390 ,1,0,0.,0.8,0.,0.8,0.,0.8,0.,0.8
1981-08-26 09:04:57.190 ,1,0,0.,0.8,0.,0.8,0.,0.8,0.,0.8
1981-08-26 09:04:57.990 ,1,0,0.,0.8,0.,0.8,0.,0.8,0.,0.8
1981-08-26 09:04:58.790 ,1,0,0.,0.8,0.,0.8,0.,0.8,0.,0.8
1981-08-26 09:04:59.590 ,1,0,0.,0.8,0.,0.8,0.,0.8,0.,0.8
1981-08-26 09:05:00.390 ,1,0,0.,0.8,0.,0.8,0.,0.8,0.,0.8
1981-08-26 09:05:01.190 ,1,0,0.,0.8,0.,0.8,0.,0.8,0.,0.8
1981-08-26 09:05:01.990 ,1,0,0.,0.8,0.,0.8,0.,0.8,0.,0.8
1981-08-26 09:05:02.790 ,1,0,0.,0.8,0.,0.8,0.,0.8,0.,0.8
1981-08-26 09:05:03.590 ,1,0,0.,0.8,0.,0.8,0.,0.8,0.,0.8
1981-08-26 09:05:04.390 ,1,0,0.,0.8,0.,0.8,0.,0.8,0.,0.8
1981-08-26 09:05:05.190 ,1,0,0.,0.8,0.,0.8,0.,0.8,0.,0.8
1981-08-26 09:05:05.990 ,1,0,0.,0.8,0.,0.8,0.,0.8,0.,0.8
1981-08-26 09:05:06.790 ,1,0,0.,0.8,0.,0.8,0.,0.8,0.,0.8
1981-08-26 09:05:07.590 ,1,0,0.,0.8,0.,0.8,0.,0.8,0.,0.8
1981-08-26 09:05:08.390 ,1,0,0.,0.8,0.,0.8,0.,0.8,0.,0.8
1981-08-26 09:05:09.190 ,1,0,0.,0.8,0.,0.8,0.,0.8,0.,0.8
1981-08-26 09:05:09.990 ,1,0,0.,0.8,0.,0.8,0.,0.8,0.,0.8
1981-08-26 09:05:10.790 ,1,0,0.,0.8,0.,0.8,0.,0.8,0.,0.8
1981-08-26 09:05:11.590 ,0,0,0.,0.8,0.,0.8,0.,0.8,0.,0.8
1981-08-26 09:05:12.390 ,0,0,0.,0.8,0.,0.8,0.,0.8,0.,0.8
1981-08-26 09:05:13.190 ,0,0,0.,0.8,0.,0.8,0.,0.8,0.,0.8
1981-08-26 09:05:13.990 ,0,0,0.,0.8,0.,0.8,0.,0.8,0.,0.8
1981-08-26 09:05:14.790 ,0,0,0.,0.8,0.,0.8,0.,0.8,0.,0.8
1981-08-26 09:05:15.590 ,0,0,0.,0.8,0.,0.8,0.,0.8,0.,0.8
1981-08-26 09:05:16.390 ,0,0,0.,0.8,0.,0.8,0.,0.8,0.,0.8
1981-08-26 09:05:17.190 ,0,0,0.,0.8,0.,0.8,0.,0.8,0.,0.8
1981-08-26 09:05:17.990 ,0,0,0.,0.8,0.,0.8,0.,0.8,0.,0.8
1981-08-26 09:05:18.790 ,0,0,0.,0.8,0.,0.8,0.,0.8,0.,0.8
1981-08-26 09:05:19.590 ,0,0,0.,0.8,0.,0.8,0.,0.8,0.,0.8
1981-08-26 09:05:20.390 ,0,0,0.,0.8,0.,0.8,0.,0.8,0.,0.8
1981-08-26 09:05:21.190 ,0,0,0.,0.8,0.,0.8,0.,0.8,0.,0.8
1981-08-26 09:05:21.990 ,0,0,0.,0.8,0.,0.8,0.,0.8,0.,0.8
1981-08-26 09:05:22.790 ,0,0,0.,0.8,0.,0.8,0.,0.8,0.,0.8
1981-08-26 09:05:23.590 ,0,0,0.,0.8,0.,0.8,0.,0.8,0.,0.8
1981-08-26 09:05:24.390 ,0,0,0.,0.8,0.,0.8,0.,0.8,0.,0.8
1981-08-26 09:05:25.190 ,0,0,0.,0.8,0.,0.8,0.,0.8,0.,0.8
1981-08-26 09:05:25.990 ,0,0,0.,0.8,0.,0.8,0.,0.8,0.,0.8
1981-08-26 09:05:26.790 ,0,0,0.,0.8,0.,0.8,0.,0.8,0.,0.8
1981-08-26 09:05:27.590 ,0,0,0.,0.8,0.,0.8,0.,0.8,0.,0.8
1981-08-26 09:05:28.390 ,0,0,0.,0.8,0.,0.8,0.,0.8,0.,0.8
1981-08-26 09:05:29.190 ,0,0,0.,0.8,0.,0.8,0.,0.8,0.,0.8
1981-08-26 09:05:29.990 ,0,0,0.,0.8,0.,0.8,0.,0.8,0.,0.8
1981-08-26 09:05:30.790 ,0,0,0.,0.8,0.,0.8,0.,0.8,0.,0.8
1981-08-26 09:05:31.590 ,0,0,0.,0.8,0.,0.8,0.,0.8,0.,0.8
1981-08-26 09:05:32.390 ,0,0,0.,0.8,0.,0.8,0.,0.8,0.,0.8
1981-08-26 09:05:33.190 ,0,0,0.,0.8,0.,0.8,0.,0.8,0.,0.8
1981-08-26 09:05:33.990 ,0,0,0.,0.8,0.,0.8,0.,0.8,0.,0.8
1981-08-26 09:05:34.790 ,0,0,0.,0.8,0.,0.8,0.,0.8,0.,0.8
1981-08-26 09:05:35.590 ,0,0,0.,0.8,0.,0.8,0.,0.8,0.,0.8
1981-08-26 09:05:36.390 ,0,0,0.,0.8,0.,0.8,0.,0.8,0.,0.8
1981-08-26 09:05:37.190 ,0,0,0.,0.8,0.,0.8,0.,0.8,0.,0.8
1981-08-26 09:05:37.990 ,0,0,0.,0.8,0.,0.8,0.,0.8,0.,0.8
1981-08-26 09:05:38.790 ,0,0,0.,0.8,0.,0.8,0.,0.8,0.,0.8
1981-08-26 09:05:39.590 ,0,0,0.,0.8,0.,0.8,0.,0.8,0.,0.8
1981-08-26 09:05:40.390 ,0,0,0.,0.8,0.,0.8,0.,0.8,0.,0.8
1981-08-26 09:05:41.190 ,0,0,0.,0.8,0.,0.8,0.,0.8,0.,0.8
1981-08-26 09:05:41.990 ,0,0,0.,0.8,0.,0.8,0.,0.8,0.,0.8
1981-08-26 09:05:42.790 ,0,0,0.,0.8,0.,0.8,0.,0.8,0.,0.8
1981-08-26 09:05:43.590 ,0,0,0.,0.8,0.,0.8,0.,0.8,0.,0.8
1981-08-26 09:05:44.390 ,0,0,0.,0.8,0.,0.8,0.,0.8,0.,0.8
1981-08-26 09:05:45.190 ,0,0,0.,0.8,0.,0.8,0.,0.8,0.,0.8
1981-08-26 09:05:45.990 ,0,0,0.,0.8,0.,0.8,0.,0.8,0.,0.8
1981-08-26 09:05:46.790 ,0,0,0.,0.8,0.,0.8,0.,0.8,0.,0.8
1981-08-26 09:05:47.590 ,0,0,0.,0.8,0.,0.8,0.,0.8,0.,0.8
1981-08-26 09:05:48.390 ,0,0,0.,0.8,0.,0.8,0.,0.8,0.,0.8
1981-08-26 09:05:49.190 ,0,0,0.,0.8,0.,0.8,0.,0.8,0.,0.8
1981-08-26 09:05:49.990 ,0,0,0.,0.8,0.,0.8,0.,0.8,0.,0.8
1981-08-26 09:05:50.790 ,0,0,0.,0.8,0.,0.8,0.,0.8,0.,0.8
1981-08-26 09:05:51.590 ,0,0,0.,0.8,0.,0.8,0.,0.8,0.,0.8
1981-08-26 09:05:52.390 ,0,0,0.,0.8,0.,0.8,0.,0.8,0.,0.8